Other Surface Observations
Issued by NWS Upton, NY

Home | Current Version | Previous Version | Text Only | Print | Product List | Glossary On
Versions: 1 2 3 4 5 6 7 8 9 10 11 12 13 14 15 16 17 18 19 20 21 22 23 24 25 26 27 28 29 30 31 32 33 34 35 36 37 38 39 40 41 42 43 44 45 46 47 48 49 50
077
SXUS51 KOKX 221257
OSOOKX
New York City Metropolitan Area Weather Roundup
National Weather Service New York NY
900 AM EDT SUN APR 22 2018

CITY           SKY/WX    TMP DP  RH WIND       PRES   REMARKS
Central Park   FAIR      51  18  27 W6        30.44R
LaGuardia Arpt FAIR      52  24  33 NW7       30.41S
Kennedy Intl   FAIR      54  19  25 VRB5      30.42S
Newark Liberty FAIR      54  26  34 W5        30.42R
Teterboro Arpt FAIR      51  20  29 CALM      30.41S
Bronx Bot Gard   N/A     52  21  30 NW2       30.41F
Bronx Lehman C   N/A     50  19  29 NW5         N/A
Queens College   N/A     50  19  29 W7          N/A
Breezy Point     N/A     46 N/A N/A W7          N/A
Brooklyn Coll    N/A     50  19  29 NW7         N/A
Staten Island    N/A     50  21  32 W5          N/A

>>>>>>>>>>>>>>>>>>>>>>>>>>>>>>>>> KEY <<<<<<<<<<<<<<<<<<<<<<<<<<<<<<<
> SKY/WX - Sky Condition/Present    : R : WCI - Wind Chill Index    <
>          Weather                  : E : VSB - Visibility in Miles <
> TMP    - Temperature in Deg F     : M : HX  - Heat Index          <
> DP     - Dew Point Temperature    : A : TC  - Temperature in      <
> RH     - Relative Humidity        : R :       Celsius             <
> WIND   - Direction/Speed (mph)    : K : VRB - Variable Wind Dir   <
> PRES   - Pressure (in Hg)         : S :                           <
>>>>>>>>>>>>>>>>>>>>>>>>>>>>>>>>> KEY <<<<<<<<<<<<<<<<<<<<<<<<<<<<<<<




USA.gov is the U.S. government's official web portal to all federal, state and local government web resources and services.